Powrót do katalogu

STARLINK-32556

AktywnyŁącznośćVLEO
NORAD 61858·PAYLOAD·🇺🇸 United States

Wystrzelony Nov 7, 2024 z Cape Canaveral Space Force Station

Loading…

Następne Przeloty (najbliższe 24 godziny)

TLE

ŚwieżeSource: CelesTrak SupGP

Epoka: Sep 15, 2026, 03:23 UTC

1 61858C 24202P   26258.14145833 -.00038884  00000+0 -14075-2 0  2589
2 61858  43.0006 247.9956 0001178 261.4052  62.4036 15.27617860    17

Śledź STARLINK-32556 w czasie rzeczywistym z AllMySat

Download on the App Store